• In Uzbekistan
  • List of Countries
  • For 7 days
  • Water Temperature
  • Satellite Maps
  • Weather Map
  • Weather Widgets
  • user-avatar
    Login

    Hourly Weather Mirbat

    Today, 19 December, Wednesday

    Time Temperature Precipitation Wind Pressure Humidity
    00:00 +26°C° 0 mm 5 mps 761 mmHg 68%
    01:00 +26°C° 0 mm 5 mps 761 mmHg 70%
    02:00 +26°C° 0 mm 5 mps 761 mmHg 71%
    03:00 +25°C° 0 mm 5 mps 761 mmHg 72%
    04:00 +25°C° 0 mm 4 mps 761 mmHg 72%
    05:00 +25°C° 0 mm 4 mps 761 mmHg 71%
    06:00 +25°C° 0 mm 4 mps 761 mmHg 70%
    07:00 +25°C° 0 mm 4 mps 761 mmHg 68%
    08:00 +26°C° 0 mm 4 mps 762 mmHg 59%
    09:00 +27°C° 0 mm 4 mps 762 mmHg 49%
    10:00 +28°C° 0 mm 4 mps 762 mmHg 39%
    11:00 +29°C° 0 mm 4 mps 762 mmHg 38%
    12:00 +29°C° 0 mm 5 mps 761 mmHg 37%
    13:00 +30°C° 0 mm 5 mps 761 mmHg 35%
    14:00 +30°C° 0 mm 5 mps 760 mmHg 36%
    15:00 +30°C° 0 mm 5 mps 760 mmHg 36%
    16:00 +30°C° 0 mm 6 mps 760 mmHg 36%
    17:00 +30°C° 0 mm 6 mps 760 mmHg 37%
    18:00 +29°C° 0 mm 6 mps 760 mmHg 39%
    19:00 +28°C° 0 mm 6 mps 760 mmHg 40%
    20:00 +28°C° 0 mm 5 mps 761 mmHg 40%
    21:00 +27°C° 0 mm 5 mps 761 mmHg 40%
    22:00 +27°C° 0 mm 5 mps 761 mmHg 40%
    23:00 +27°C° 0 mm 5 mps 761 mmHg 40%

    Tomorrow, 20 December, Thursday

    Time Temperature Precipitation Wind Pressure Humidity
    00:00 +26°C° 0 mm 4 mps 761 mmHg 39%
    01:00 +26°C° 0 mm 4 mps 760 mmHg 38%
    02:00 +25°C° 0 mm 4 mps 760 mmHg 37%
    03:00 +25°C° 0 mm 4 mps 760 mmHg 36%
    04:00 +25°C° 0 mm 4 mps 760 mmHg 36%
    05:00 +23°C° 0 mm 4 mps 761 mmHg 35%
    06:00 +23°C° 0 mm 4 mps 761 mmHg 34%
    07:00 +23°C° 0 mm 4 mps 761 mmHg 34%
    08:00 +25°C° 0 mm 4 mps 762 mmHg 31%
    09:00 +26°C° 0 mm 4 mps 762 mmHg 29%
    10:00 +28°C° 0 mm 4 mps 762 mmHg 27%
    11:00 +28°C° 0 mm 4 mps 762 mmHg 27%
    12:00 +29°C° 0 mm 4 mps 761 mmHg 27%
    13:00 +29°C° 0 mm 4 mps 760 mmHg 27%
    14:00 +29°C° 0 mm 5 mps 760 mmHg 28%
    15:00 +29°C° 0 mm 5 mps 759 mmHg 28%
    16:00 +29°C° 0 mm 5 mps 759 mmHg 28%
    17:00 +29°C° 0 mm 5 mps 759 mmHg 30%
    18:00 +28°C° 0 mm 5 mps 759 mmHg 32%
    19:00 +27°C° 0 mm 5 mps 760 mmHg 34%
    20:00 +27°C° 0 mm 5 mps 760 mmHg 36%
    21:00 +26°C° 0 mm 5 mps 760 mmHg 37%
    22:00 +26°C° 0 mm 4 mps 760 mmHg 38%
    23:00 +25°C° 0 mm 4 mps 760 mmHg 39%

    Day after tomorrow, 21 December, Friday

    Time Temperature Precipitation Wind Pressure Humidity
    00:00 +25°C° 0 mm 4 mps 760 mmHg 40%
    01:00 +24°C° 0 mm 3 mps 760 mmHg 41%
    02:00 +24°C° 0 mm 3 mps 760 mmHg 41%
    03:00 +24°C° 0 mm 3 mps 760 mmHg 41%
    04:00 +24°C° 0 mm 3 mps 759 mmHg 40%
    05:00 +22°C° 0 mm 3 mps 760 mmHg 39%
    06:00 +22°C° 0 mm 3 mps 760 mmHg 38%
    07:00 +22°C° 0 mm 3 mps 760 mmHg 37%
    08:00 +25°C° 0 mm 3 mps 761 mmHg 35%
    09:00 +26°C° 0 mm 3 mps 761 mmHg 33%
    10:00 +27°C° 0 mm 3 mps 761 mmHg 31%
    11:00 +28°C° 0 mm 4 mps 761 mmHg 31%
    12:00 +29°C° 0 mm 4 mps 760 mmHg 31%
    13:00 +29°C° 0 mm 4 mps 759 mmHg 31%
    14:00 +29°C° 0 mm 4 mps 759 mmHg 32%
    15:00 +29°C° 0 mm 5 mps 758 mmHg 33%
    16:00 +29°C° 0 mm 5 mps 758 mmHg 34%
    17:00 +28°C° 0 mm 4 mps 758 mmHg 37%
    18:00 +28°C° 0 mm 4 mps 758 mmHg 39%
    19:00 +27°C° 0 mm 4 mps 759 mmHg 42%
    20:00 +27°C° 0 mm 4 mps 759 mmHg 42%
    21:00 +26°C° 0 mm 3 mps 759 mmHg 43%
    22:00 +26°C° 0 mm 3 mps 759 mmHg 44%
    23:00 +25°C° 0 mm 3 mps 759 mmHg 44%

    22 December, Saturday

    Time Temperature Precipitation Wind Pressure Humidity
    00:00 +25°C° 0 mm 3 mps 759 mmHg 44%
    01:00 +25°C° 0 mm 2 mps 758 mmHg 43%
    02:00 +24°C° 0 mm 2 mps 758 mmHg 42%
    03:00 +24°C° 0 mm 2 mps 758 mmHg 41%
    04:00 +24°C° 0 mm 2 mps 758 mmHg 40%
    05:00 +24°C° 0 mm 2 mps 758 mmHg 40%
    06:00 +24°C° 0 mm 2 mps 759 mmHg 39%
    07:00 +24°C° 0 mm 2 mps 759 mmHg 39%
    08:00 +25°C° 0 mm 2 mps 760 mmHg 37%
    09:00 +26°C° 0 mm 2 mps 760 mmHg 35%
    10:00 +28°C° 0 mm 2 mps 761 mmHg 33%
    11:00 +28°C° 0 mm 2 mps 760 mmHg 32%
    12:00 +29°C° 0 mm 2 mps 759 mmHg 31%
    13:00 +30°C° 0 mm 2 mps 759 mmHg 30%
    14:00 +30°C° 0 mm 3 mps 758 mmHg 31%
    15:00 +30°C° 0 mm 3 mps 758 mmHg 31%
    16:00 +30°C° 0 mm 3 mps 757 mmHg 32%
    17:00 +29°C° 0 mm 3 mps 758 mmHg 34%
    18:00 +28°C° 0 mm 3 mps 758 mmHg 36%
    19:00 +27°C° 0 mm 2 mps 759 mmHg 37%
    20:00 +27°C° 0 mm 2 mps 759 mmHg 36%
    21:00 +27°C° 0 mm 2 mps 759 mmHg 35%
    22:00 +26°C° 0 mm 2 mps 760 mmHg 34%
    23:00 +26°C° 0 mm 2 mps 759 mmHg 33%

    23 December, Sunday

    Time Temperature Precipitation Wind Pressure Humidity
    00:00 +26°C° 0 mm 3 mps 759 mmHg 32%
    01:00 +25°C° 0 mm 3 mps 759 mmHg 32%
    02:00 +25°C° 0 mm 3 mps 759 mmHg 33%
    03:00 +25°C° 0 mm 3 mps 759 mmHg 34%
    04:00 +25°C° 0 mm 3 mps 759 mmHg 35%
    05:00 +23°C° 0 mm 4 mps 759 mmHg 38%
    06:00 +23°C° 0 mm 4 mps 760 mmHg 40%
    07:00 +23°C° 0 mm 4 mps 760 mmHg 43%
    08:00 +25°C° 0 mm 4 mps 761 mmHg 44%
    09:00 +26°C° 0 mm 4 mps 761 mmHg 45%
    10:00 +27°C° 0 mm 4 mps 762 mmHg 46%
    11:00 +28°C° 0 mm 4 mps 761 mmHg 45%
    12:00 +28°C° 0 mm 4 mps 760 mmHg 43%
    13:00 +29°C° 0 mm 4 mps 760 mmHg 42%
    14:00 +29°C° 0 mm 4 mps 759 mmHg 41%
    15:00 +29°C° 0 mm 4 mps 759 mmHg 41%
    16:00 +30°C° 0 mm 4 mps 759 mmHg 40%
    17:00 +29°C° 0 mm 3 mps 759 mmHg 41%
    18:00 +28°C° 0 mm 3 mps 760 mmHg 43%
    19:00 +27°C° 0 mm 3 mps 760 mmHg 44%
    20:00 +27°C° 0 mm 3 mps 761 mmHg 43%
    21:00 +26°C° 0 mm 3 mps 761 mmHg 41%
    22:00 +26°C° 0 mm 3 mps 761 mmHg 40%
    23:00 +25°C° 0 mm 4 mps 761 mmHg 40%

    24 December, Monday

    Time Temperature Precipitation Wind Pressure Humidity
    00:00 +25°C° 0 mm 4 mps 761 mmHg 39%
    01:00 +23°C° 0 mm 4 mps 761 mmHg 38%
    02:00 +23°C° 0 mm 4 mps 760 mmHg 37%
    03:00 +23°C° 0 mm 4 mps 760 mmHg 37%
    04:00 +22°C° 0 mm 5 mps 760 mmHg 36%
    05:00 +22°C° 0 mm 5 mps 761 mmHg 36%
    06:00 +22°C° 0 mm 5 mps 761 mmHg 37%
    07:00 +21°C° 0 mm 5 mps 761 mmHg 37%
    08:00 +22°C° 0 mm 5 mps 762 mmHg 35%
    09:00 +25°C° 0 mm 4 mps 762 mmHg 33%
    10:00 +26°C° 0 mm 4 mps 762 mmHg 32%
    11:00 +27°C° 0 mm 4 mps 762 mmHg 31%
    12:00 +27°C° 0 mm 4 mps 761 mmHg 30%
    13:00 +28°C° 0 mm 4 mps 760 mmHg 30%
    14:00 +28°C° 0 mm 4 mps 760 mmHg 30%
    15:00 +28°C° 0 mm 4 mps 759 mmHg 31%
    16:00 +29°C° 0 mm 3 mps 759 mmHg 32%
    17:00 +28°C° 0 mm 3 mps 759 mmHg 33%
    18:00 +27°C° 0 mm 3 mps 760 mmHg 35%
    19:00 +26°C° 0 mm 3 mps 760 mmHg 36%
    20:00 +26°C° 0 mm 3 mps 760 mmHg 37%
    21:00 +25°C° 0 mm 3 mps 761 mmHg 37%
    22:00 +25°C° 0 mm 3 mps 761 mmHg 38%
    23:00 +24°C° 0 mm 3 mps 761 mmHg 40%
    Show more